Tracking 29606 objects as of 18-Sep-2024
HD Live streaming from Space Station
objects crossing your sky now

STARLINK-4374

Track STARLINK-4374 now!
10-day predictions


NORAD ID: 53652
Int'l Code: 2022-105E
Perigee: 568.7 km
Apogee: 571.4 km
Inclination: 97.7 °
Period: 95.9 minutes
Semi major axis: 6941 km
RCS: Unknown
Launch date: August 31, 2022
Source: United States (US)
Launch site: AIR FORCE WESTERN TEST RANGE (AFWTR)
Your satellite tracking list
Your tracking list is empty




NASA's NSSDC Master Catalog

Two Line Element Set (TLE):
1 53652U 22105E   24261.68626653  .00004282  00000-0  33759-3 0  9994
2 53652  97.6572 141.2022 0001962  86.6304 273.5145 15.01283416112514
Source of the keplerian elements: AFSPC